Weather History for Grand Rapids, MI

Change the Weather History Date:

Monday, September 9, 2013

  Actual Average Record
Temperature  
Mean Temperature 72 °F 66 °F  
Max Temperature 84 °F 76 °F 95 °F (1897)
Min Temperature 59 °F 55 °F 37 °F (1975)
Degree Days  
Heating Degree Days 0 2  
Month to date heating degree days 2 16  
Since 1 July heating degree days 28 36  
Cooling Degree Days 7 3  
Month to date cooling degree days 39 32  
Year to date cooling degree days 709 657  
Growing Degree Days 22 (Base 50)    
Moisture  
Dew Point 63 °F    
Average Humidity 76    
Maximum Humidity 93    
Minimum Humidity 59    
Precipitation  
Precipitation 0.76 in 0.14 in 2.25 in (1920)
Month to date precipitation 0.77 1.23  
Year to date precipitation 33.09 25.95  
Snow  
Snow 0.00 in 0.00 in 0.00 in ()
Month to date snowfall 0.0 0.0  
Since 1 July snowfall 0.0 0.0  
Since 1 September snowfall 0.0 0.0  
Snow Depth 0.00 in    
Sea Level Pressure  
Sea Level Pressure 29.97 in    
Wind  
Wind Speed 8 mph (SE)    
Max Wind Speed 14 mph    
Max Gust Speed 20 mph    
Visibility 8 miles    
Events Rain , Thunderstorm    
T = Trace of Precipitation, MM = Missing Value Source: NWS Daily Summary

Daily Weather History Graph

Daily Weather History Graph

Search for Another Location

Airport:

Trip Planner

Search our weather history database for the weather conditions in past years. The results will help you decide how hot, cold, wet, or windy it might be!

Date:

Astronomy

Sep. 09, 2013 Rise Set
Actual Time 7:15 AM EDT 8:02 PM EDT
Civil Twilight 6:46 AM EDT 8:30 PM EDT
Nautical Twilight 6:12 AM EDT 9:04 PM EDT
Astronomical Twilight 5:37 AM EDT 9:40 PM EDT
Moon 11:44 AM EDT (9/9) 10:10 PM EDT (9/9)
Length of Visible Light 13h 43m
Length of Day
12h 46m
Waxing Crescent, 19% of the Moon is Illuminated
Sep 9
Waxing Crescent
Sep 12
First Quarter
Sep 19
Full
Sep 26
Last Quarter
Oct 4
New

Hourly Weather History & Observations

Time (EDT) Temp. Heat Index Dew Point Humidity Pressure Visibility Wind Dir Wind Speed Gust Speed Precip Events Conditions
12:53 AM 62.1 °F - 54.0 °F 75% 30.06 in 10.0 mi East 5.8 mph - N/A   Scattered Clouds
1:53 AM 62.1 °F - 54.0 °F 75% 30.05 in 10.0 mi ESE 8.1 mph - N/A   Mostly Cloudy
2:53 AM 62.1 °F - 54.0 °F 75% 30.04 in 10.0 mi East 6.9 mph - N/A   Mostly Cloudy
3:53 AM 61.0 °F - 55.9 °F 83% 30.03 in 10.0 mi ESE 5.8 mph - 0.00 in Rain Light Rain
4:53 AM 60.1 °F - 55.9 °F 86% 30.02 in 10.0 mi East 6.9 mph - 0.02 in   Partly Cloudy
5:53 AM 60.1 °F - 55.9 °F 86% 30.02 in 6.0 mi ESE 5.8 mph - 0.03 in Rain , Thunderstorm Thunderstorms and Rain
6:42 AM 60.8 °F - 57.2 °F 88% 30.00 in 4.0 mi SE 9.2 mph - 0.12 in Rain , Thunderstorm Thunderstorms and Rain
6:53 AM 60.1 °F - 57.0 °F 90% 29.99 in 4.0 mi SE 10.4 mph - 0.14 in Rain , Thunderstorm Thunderstorms and Rain
7:20 AM 60.8 °F - 57.2 °F 88% 30.01 in 3.0 mi South 4.6 mph - 0.10 in Rain , Thunderstorm Heavy Thunderstorms and Rain
7:38 AM 60.8 °F - 57.2 °F 88% 30.00 in 1.8 mi SSE 9.2 mph - 0.17 in Rain , Thunderstorm Heavy Thunderstorms and Rain
7:53 AM 61.0 °F - 57.9 °F 90% 30.00 in 3.0 mi SSE 9.2 mph - 0.25 in Rain , Thunderstorm Thunderstorms and Rain
8:24 AM 60.8 °F - 59.0 °F 94% 30.00 in 4.0 mi SE 8.1 mph - 0.04 in Rain Light Rain
8:53 AM 61.0 °F - 59.0 °F 93% 30.00 in 9.0 mi ENE 6.9 mph - 0.04 in   Overcast
9:04 AM 62.6 °F - 59.0 °F 88% 30.01 in 1.5 mi NNE 11.5 mph - 0.01 in Rain Rain
9:16 AM 60.8 °F - 59.0 °F 94% 30.03 in 2.5 mi NNE 12.7 mph - 0.25 in Rain Heavy Rain
9:33 AM 62.6 °F - 60.8 °F 94% 30.01 in 10.0 mi South 6.9 mph - 0.27 in   Overcast
9:53 AM 64.0 °F - 62.1 °F 93% 30.01 in 10.0 mi South 3.5 mph - 0.27 in   Overcast
10:38 AM 62.6 °F - 60.8 °F 94% 30.02 in 5.0 mi East 8.1 mph - N/A   Overcast
10:53 AM 64.0 °F - 62.1 °F 93% 30.01 in 6.0 mi East 8.1 mph - N/A   Overcast
11:53 AM 70.0 °F - 64.9 °F 84% 29.99 in 10.0 mi SSE 11.5 mph - N/A   Scattered Clouds
12:02 PM 71.6 °F - 64.4 °F 78% 29.99 in 10.0 mi SSE 10.4 mph - N/A   Mostly Cloudy
12:48 PM 75.2 °F - 66.2 °F 73% 29.98 in 10.0 mi South 8.1 mph - N/A   Scattered Clouds
12:53 PM 75.9 °F - 66.9 °F 74% 29.97 in 10.0 mi SSE 10.4 mph - N/A   Scattered Clouds
1:53 PM 79.0 °F - 68.0 °F 69% 29.95 in 10.0 mi SSE 8.1 mph - N/A   Scattered Clouds
2:53 PM 81.0 °F 84.1 °F 69.1 °F 67% 29.93 in 10.0 mi WSW 8.1 mph - N/A   Mostly Cloudy
3:53 PM 84.0 °F 87.8 °F 69.1 °F 61% 29.90 in 10.0 mi SSW 8.1 mph - N/A   Partly Cloudy
4:53 PM 84.0 °F 87.0 °F 68.0 °F 58% 29.89 in 10.0 mi SSW 8.1 mph - N/A   Partly Cloudy
5:53 PM 82.9 °F 86.5 °F 69.1 °F 63% 29.88 in 10.0 mi South 11.5 mph - N/A   Partly Cloudy
6:53 PM 82.0 °F 85.9 °F 70.0 °F 67% 29.87 in 9.0 mi South 6.9 mph - N/A   Partly Cloudy
7:53 PM 79.0 °F - 70.0 °F 74% 29.86 in 8.0 mi SE 4.6 mph - N/A   Partly Cloudy
8:53 PM 77.0 °F - 71.1 °F 82% 29.86 in 8.0 mi SSE 5.8 mph - N/A   Partly Cloudy
9:53 PM 75.9 °F - 71.1 °F 85% 29.85 in 6.0 mi South 6.9 mph - N/A   Haze
10:53 PM 79.0 °F - 71.1 °F 77% 29.85 in 7.0 mi South 8.1 mph - N/A   Clear
11:53 PM 79.0 °F - 71.1 °F 77% 29.86 in 7.0 mi SSW 6.9 mph - N/A   Clear